Flag for U.S.A. Weather past 2 weeks in Bowling Green, Kentucky, U.S.A.

Now
81 °F

Broken clouds.


Feels Like: 83 °F
Forecast: 68 / 85 °F
Wind: 9 mph from Southwest

Location: Glasgow Municipal Airport

Current Time: May 30, 2015 at 12:38:11 PM

Latest Report: May 30, 2015 at 12:10 PM


Visibility: 10 mi

Pressure: 30.07 "Hg

Humidity: 54%

Dew point: 63 °F

Location of Bowling GreenLocation

Historic Weather in Bowling Green — Graph

°F

Bowling Green temperature yesterday

Maximum temperature yesterday: 82 °F (at 3:30 PM)
Minimum temperature yesterday: 64 °F (at 5:10 AM)
Average temperature yesterday: 73 °F

Past Weeks' High & Low Weather Summary

 TemperatureHumidityPressure
High84 °F (May 15, 3:50 PM)100% (May 16, 8:10 AM)30.39 "Hg (May 16, 8:10 AM)
Low40 °F (May 22, 3:30 AM)26% (May 23, 2:10 PM)29.90 "Hg (May 20, 6:30 PM)
Average69 °F76%30.15 "Hg
* Reported May 15 11:10 AM — May 30 11:10 AM, Bowling Green, Weather by CustomWeather, © 2015

Note: Actual official high and low records may vary slightly from our data, if they occured in-between our weather recording intervals... More about our weather records

Advertising

Bowling Green weather history for previous 24 hours

 ConditionsComfort  
Time TempWeatherWind HumidityBarometerVisibility
11:10 AM
Sat, May 30
82 °FBroken clouds.15 mph57%30.09 "Hg10 mi
10:50 AM82 °FBroken clouds.17 mph55%30.09 "Hg10 mi
10:30 AM82 °FScattered clouds.12 mph56%30.09 "Hg10 mi
10:10 AM79 °FPartly sunny.7 mph60%30.10 "Hg10 mi
9:50 AM81 °FSunny.13 mph59%30.10 "Hg10 mi
9:30 AM80 °FSunny.9 mph61%30.10 "Hg10 mi
9:10 AM79 °FSunny.9 mph60%30.10 "Hg10 mi
8:50 AM78 °FSunny.8 mph60%30.10 "Hg10 mi
8:30 AM77 °FSunny.10 mph62%30.09 "Hg10 mi
8:10 AM76 °FSunny.9 mph66%30.09 "Hg10 mi
7:50 AM75 °FSunny.8 mph68%30.10 "Hg10 mi
7:30 AM74 °FSunny.8 mph70%30.10 "Hg10 mi
7:10 AM73 °FSunny.7 mph72%30.10 "Hg10 mi
6:50 AM71 °FSunny.6 mph77%30.09 "Hg10 mi
6:30 AM70 °FSunny.6 mph79%30.09 "Hg10 mi
6:10 AM69 °FSunny.3 mph83%30.09 "Hg10 mi
5:50 AM68 °FSunny.3 mph84%30.10 "Hg10 mi
5:30 AM68 °FScattered clouds.No wind84%30.09 "Hg10 mi
5:10 AM69 °FPartly cloudy.3 mph83%30.09 "Hg10 mi
4:50 AM69 °FPartly cloudy.3 mph82%30.09 "Hg10 mi
4:30 AM70 °FMostly cloudy.3 mph81%30.09 "Hg10 mi
4:10 AM70 °FMostly cloudy.5 mph80%30.08 "Hg10 mi
3:50 AM70 °FMostly cloudy.5 mph80%30.08 "Hg10 mi
3:30 AM70 °FPartly cloudy.3 mph80%30.08 "Hg10 mi
3:10 AM70 °FPassing clouds.5 mph80%30.08 "Hg10 mi
2:50 AM70 °FOvercast.No wind79%30.08 "Hg10 mi
2:10 AM70 °FMostly cloudy.No wind79%30.08 "Hg10 mi
1:50 AM69 °FPassing clouds.3 mph80%30.08 "Hg10 mi
1:10 AM70 °FPassing clouds.No wind80%30.08 "Hg10 mi
12:50 AM70 °FPassing clouds.3 mph81%30.09 "Hg10 mi
12:30 AM70 °FPassing clouds.5 mph79%30.09 "Hg10 mi
12:10 AM71 °FOvercast.3 mph79%30.09 "Hg10 mi
11:50 PM
Fri, May 29
71 °FOvercast.6 mph79%30.10 "Hg10 mi
11:30 PM71 °FPassing clouds.3 mph81%30.11 "Hg10 mi
11:10 PM71 °FClear.5 mph81%30.11 "Hg10 mi
10:30 PM70 °FClear.No wind83%30.11 "Hg10 mi
10:10 PM70 °FClear.No wind83%30.11 "Hg10 mi
9:50 PM71 °FClear.No wind81%30.11 "Hg10 mi
9:30 PM71 °FPassing clouds.3 mph82%30.11 "Hg10 mi
9:10 PM71 °FPartly cloudy.No wind81%30.11 "Hg10 mi
8:50 PM71 °FPartly cloudy.5 mph80%30.11 "Hg10 mi
8:30 PM73 °FPartly cloudy.7 mph76%30.11 "Hg10 mi
8:10 PM74 °FPassing clouds.5 mph74%30.10 "Hg10 mi
7:50 PM75 °FScattered clouds.5 mph71%30.09 "Hg10 mi
7:30 PM76 °FScattered clouds.3 mph70%30.08 "Hg10 mi
7:10 PM76 °FSunny.5 mph68%30.08 "Hg10 mi
6:50 PM77 °FSunny.6 mph66%30.08 "Hg10 mi
6:30 PM78 °FSunny.9 mph65%30.08 "Hg10 mi
6:10 PM79 °FSunny.8 mph63%30.07 "Hg10 mi
5:50 PM79 °FScattered clouds.7 mph64%30.07 "Hg10 mi
5:30 PM80 °FBroken clouds.10 mph61%30.07 "Hg10 mi
5:10 PM78 °FCloudy.8 mph66%30.08 "Hg10 mi
4:50 PM80 °FBroken clouds.13 mph61%30.08 "Hg10 mi
3:50 PM82 °FScattered clouds.7 mph56%30.09 "Hg10 mi
3:30 PM82 °FSunny.9 mph55%30.10 "Hg10 mi
3:10 PM82 °FScattered clouds.8 mph56%30.10 "Hg10 mi
2:50 PM82 °FBroken clouds.9 mph58%30.11 "Hg10 mi
2:30 PM79 °FBroken clouds.8 mph62%30.13 "Hg10 mi
2:10 PM80 °FBroken clouds.8 mph60%30.13 "Hg10 mi
1:50 PM80 °FBroken clouds.8 mph59%30.14 "Hg10 mi
1:30 PM80 °FScattered clouds.10 mph62%30.15 "Hg10 mi
1:10 PM80 °FBroken clouds.8 mph62%30.15 "Hg10 mi
12:50 PM81 °FScattered clouds.8 mph60%30.16 "Hg10 mi
12:10 PM78 °FSunny.9 mph64%30.17 "Hg10 mi
Weather by CustomWeather, © 2015

See weather overviewHow to use our weather pages